sat.trackr.live / text

‹ back to catalog

STARLINK-2533

NORAD 48294 · 2021-036U

PAYLOAD ACTIVE UNKNOWN

§ Identity

Operator
Country
US
Launch date
2021-04-29
Launch site
AFETR
Launch vehicle
Mass (kg)
RCS (m²)

Purposes: comms

External: N2YO · Heavens-Above · Gunter

§ Orbital elements

Epoch: 2026-09-19T23:59:52.965312Z

Period
94.01 min
Inclination
53.1585°
Eccentricity
0.0001331
Mean motion
15.31695572 rev/d
Perigee alt
469.8 km
Apogee alt
471.7 km
Semi-major
6,848.9 km
B*
4.3302e-5
RAAN
251.0725°
Arg perigee
103.1012°
Mean anomaly
257.0138°
Rev number
29,818

§ Raw data

STARLINK-25331 48294U 21036U   26262.99991858  .00000979  00000+0  43302-4 0  99952 48294  53.1585 251.0725 0001331 103.1012 257.0138 15.31695572298182

JSON: /api/v1/satellites/48294 · /tle

For live sub-satellite position, see the globe view (requires WebGL).

§ Visibility from observer

Set your observer location to see the next 7 days of passes ≥ 10°. The values pass through the URL so the page stays shareable.

No JS? Fill the form by hand. The geolocation button needs JavaScript.